Home   Weather   Cottbus   Past weeks

Flag for Germany Past Weather in Cottbus, Brandenburg, Germany — Yesterday and Last 2 Weeks

Now
30 °F

Passing clouds.


Feels Like: 27 °F
Forecast: 40 / 47 °F
Wind: 3 mph from Southwest

Location: Holzdorf

Current Time: Feb 25, 2017 at 8:16:23 am

Latest Report: Feb 25, 2017 at 7:20 am


Visibility: N/A

Pressure: 30.12 "Hg

Humidity: 93%

Dew Point: 28 °F

Location of CottbusLocation

Past Weather in Cottbus — Graph

°F

Cottbus Temperature Yesterday

Maximum temperature yesterday: 46 °F (at 12:20 am)
Minimum temperature yesterday: 32 °F (at 11:40 am)
Average temperature yesterday: 37 °F

High & Low Weather Summary for the Past Weeks

 TemperatureHumidityPressure
High55 °F (Feb 16, 1:20 pm)100% (Feb 14, 3:20 am)30.63 "Hg (Feb 14, 3:20 am)
Low18 °F (Feb 14, 3:20 am)35% (Feb 15, 3:20 pm)29.21 "Hg (Feb 23, 7:20 pm)
Average37 °F84%30.12 "Hg
* Reported Feb 10 6:20 am — Feb 25 6:20 am, Cottbus, Weather by CustomWeather, © 2017

Note: Actual official high and low records may vary slightly from our data, if they occured in-between our weather recording intervals... More about our weather records

Advertising

Cottbus Weather History for the Previous 24 Hours

Scroll right to see more
 ConditionsComfort  
Time TempWeatherWind HumidityBarometerVisibility
6:20 am
Sat, Feb 25
32 °FPassing clouds.7 mph93%30.09 "HgN/A
5:20 am34 °FChilly.8 mph87%30.09 "HgN/A
4:20 am34 °FPassing clouds.10 mph87%30.09 "HgN/A
3:20 am34 °FChilly.12 mph87%30.07 "HgN/A
2:20 am34 °FChilly.10 mph87%30.07 "HgN/A
12:20 am34 °FChilly.8 mph87%30.01 "HgN/A
11:20 pm
Fri, Feb 24
34 °FPassing clouds.9 mph87%30.01 "HgN/A
10:20 pm34 °FPassing clouds.8 mph81%29.98 "HgN/A
9:20 pm34 °FPassing clouds.7 mph87%29.98 "HgN/A
8:20 pm32 °FPassing clouds.7 mph93%29.95 "HgN/A
7:20 pm32 °FPassing clouds.3 mph93%29.95 "HgN/A
6:20 pm32 °FPassing clouds.3 mph93%29.92 "HgN/A
5:20 pm34 °FPassing clouds.6 mph93%29.89 "HgN/A
4:20 pm36 °FScattered clouds.8 mph93%29.86 "HgN/A
3:52 pm34 °FBroken clouds.12 mph93%29.83 "HgN/A
3:43 pm37 °FSnow flurries. Broken clouds.9 mph87%29.83 "Hg5 mi
3:20 pm37 °FScattered showers. Broken clouds.10 mph87%29.80 "HgN/A
3:03 pm37 °FBroken clouds.9 mph93%29.80 "HgN/A
2:20 pm36 °FBroken clouds.10 mph93%29.77 "HgN/A
2:08 pm34 °FBroken clouds.9 mph100%29.77 "HgN/A
1:45 pm32 °FSnow flurries. Partly sunny.7 mph100%29.74 "Hg2 mi
1:26 pm34 °FSnow showers. Partly sunny.7 mph93%29.74 "Hg1 mi
1:05 pm34 °FSprinkles. Fog.8 mph93%29.71 "Hg3 mi
12:40 pm34 °FSnow showers. Partly sunny.9 mph100%29.71 "Hg2 mi
12:25 pm34 °FSnow flurries. Partly sunny.8 mph93%29.71 "Hg5 mi
12:07 pm32 °FSnow flurries. Partly sunny.10 mph100%29.71 "Hg4 mi
11:40 am32 °FSnow showers. Partly sunny.14 mph100%29.68 "Hg1 mi
11:32 am34 °FHeavy snow. Partly sunny.14 mph93%29.68 "Hg1 mi
11:00 am37 °FLight rain. Partly sunny.15 mph93%29.65 "Hg4 mi
10:20 am37 °FLight rain. Partly sunny.13 mph93%29.62 "Hg4 mi
9:42 am37 °FLight rain. Partly sunny.18 mph87%29.59 "Hg5 mi
9:20 am37 °FLight rain. Partly sunny.22 mph87%29.56 "HgN/A
9:05 am37 °FLight rain. Partly sunny.25 mph87%29.53 "HgN/A
8:20 am37 °FLight rain. Partly sunny.25 mph87%29.50 "Hg5 mi
8:12 am37 °FLight rain. Partly sunny.26 mph87%29.50 "Hg5 mi
Weather by CustomWeather, © 2017

See weather overviewHow to use our weather pages